When you browse on this site, cookies collect data to enhance your experience and personalize the content and advertising you see.
Visit our Privacy Policy to learn more. By continuing to use the site, you agree to this use of cookies and data.
  • en Suisse
  • Liste des pays
  • À 7 jours
  • Température de l'eau
  • Carte météo
  • Widgets météo
  • user-avatar
    Se connecter

    Météo par heure à Truro

    Ce jour, 18 Septembre, Mercredi

    Heure Température Précipitation Vent Pression Humidité
    00:00 +10°C° 0 mm 5 m/s 767 mmHg 88%
    01:00 +10°C° 0 mm 5 m/s 767 mmHg 88%
    02:00 +10°C° 0 mm 5 m/s 767 mmHg 89%
    03:00 +10°C° 0 mm 5 m/s 767 mmHg 89%
    04:00 +10°C° 0 mm 5 m/s 767 mmHg 90%
    05:00 +10°C° 0 mm 5 m/s 767 mmHg 91%
    06:00 +10°C° 0 mm 5 m/s 767 mmHg 91%
    07:00 +13°C° 0 mm 5 m/s 768 mmHg 87%
    08:00 +14°C° 0 mm 6 m/s 768 mmHg 82%
    09:00 +15°C° 0 mm 6 m/s 768 mmHg 78%
    10:00 +16°C° 0 mm 6 m/s 768 mmHg 73%
    11:00 +16°C° 0 mm 5 m/s 768 mmHg 68%
    12:00 +17°C° 0 mm 5 m/s 768 mmHg 64%
    13:00 +17°C° 0 mm 5 m/s 769 mmHg 62%
    14:00 +17°C° 0 mm 5 m/s 769 mmHg 61%
    15:00 +17°C° 0 mm 5 m/s 769 mmHg 60%
    16:00 +16°C° 0 mm 5 m/s 768 mmHg 66%
    17:00 +15°C° 0 mm 4 m/s 768 mmHg 71%
    18:00 +14°C° 0 mm 4 m/s 768 mmHg 77%
    19:00 +14°C° 0 mm 4 m/s 768 mmHg 79%
    20:00 +13°C° 0 mm 4 m/s 769 mmHg 81%
    21:00 +12°C° 0 mm 3 m/s 769 mmHg 83%
    22:00 +12°C° 0 mm 4 m/s 769 mmHg 84%
    23:00 +12°C° 0 mm 4 m/s 769 mmHg 84%

    Demain, 19 Septembre, Jeudi

    Heure Température Précipitation Vent Pression Humidité
    00:00 +12°C° 0 mm 4 m/s 769 mmHg 84%
    01:00 +12°C° 0 mm 4 m/s 769 mmHg 85%
    02:00 +12°C° 0 mm 4 m/s 768 mmHg 85%
    03:00 +12°C° 0 mm 4 m/s 768 mmHg 86%
    04:00 +12°C° 0 mm 4 m/s 768 mmHg 87%
    05:00 +12°C° 0 mm 4 m/s 768 mmHg 88%
    06:00 +12°C° 0 mm 4 m/s 768 mmHg 89%
    07:00 +13°C° 0 mm 5 m/s 769 mmHg 85%
    08:00 +14°C° 0 mm 5 m/s 769 mmHg 80%
    09:00 +16°C° 0 mm 5 m/s 769 mmHg 76%
    10:00 +16°C° 0 mm 5 m/s 769 mmHg 74%
    11:00 +17°C° 0 mm 6 m/s 769 mmHg 73%
    12:00 +19°C° 0 mm 6 m/s 769 mmHg 71%
    13:00 +19°C° 0 mm 6 m/s 769 mmHg 71%
    14:00 +19°C° 0 mm 6 m/s 768 mmHg 71%
    15:00 +19°C° 0 mm 6 m/s 768 mmHg 71%
    16:00 +17°C° 0 mm 5 m/s 768 mmHg 75%
    17:00 +16°C° 0 mm 5 m/s 767 mmHg 79%
    18:00 +15°C° 0 mm 5 m/s 767 mmHg 82%
    19:00 +14°C° 0 mm 5 m/s 767 mmHg 85%
    20:00 +13°C° 0 mm 6 m/s 767 mmHg 87%
    21:00 +13°C° 0 mm 6 m/s 767 mmHg 89%
    22:00 +13°C° 0 mm 6 m/s 767 mmHg 90%
    23:00 +12°C° 0 mm 7 m/s 766 mmHg 90%

    Après-demain, 20 Septembre, Vendredi

    Heure Température Précipitation Vent Pression Humidité
    00:00 +12°C° 0 mm 7 m/s 766 mmHg 90%
    01:00 +14°C° 0 mm 7 m/s 765 mmHg 89%
    02:00 +14°C° 0 mm 7 m/s 765 mmHg 89%
    03:00 +14°C° 0 mm 7 m/s 765 mmHg 88%
    04:00 +13°C° 0 mm 8 m/s 764 mmHg 86%
    05:00 +13°C° 0 mm 8 m/s 763 mmHg 85%
    06:00 +13°C° 0 mm 8 m/s 763 mmHg 83%
    07:00 +15°C° 0 mm 9 m/s 763 mmHg 77%
    08:00 +14°C° 0 mm 10 m/s 762 mmHg 72%
    09:00 +16°C° 0 mm 10 m/s 762 mmHg 66%
    10:00 +16°C° 0 mm 11 m/s 761 mmHg 63%
    11:00 +17°C° 0 mm 11 m/s 761 mmHg 61%
    12:00 +17°C° 0 mm 11 m/s 760 mmHg 58%
    13:00 +17°C° 0 mm 11 m/s 760 mmHg 59%
    14:00 +17°C° 0 mm 11 m/s 759 mmHg 59%
    15:00 +17°C° 0 mm 12 m/s 758 mmHg 60%
    16:00 +16°C° 0 mm 11 m/s 757 mmHg 61%
    17:00 +16°C° 0 mm 11 m/s 757 mmHg 62%
    18:00 +16°C° 0 mm 11 m/s 756 mmHg 63%
    19:00 +16°C° 0 mm 11 m/s 756 mmHg 63%
    20:00 +16°C° 0 mm 10 m/s 755 mmHg 64%
    21:00 +17°C° 0 mm 10 m/s 755 mmHg 64%
    22:00 +17°C° 0 mm 10 m/s 754 mmHg 65%
    23:00 +17°C° 0 mm 10 m/s 754 mmHg 66%

    21 Septembre, Samedi

    Heure Température Précipitation Vent Pression Humidité
    00:00 +17°C° 0 mm 9 m/s 753 mmHg 67%
    01:00 +17°C° 0 mm 9 m/s 753 mmHg 71%
    02:00 +16°C° 0 mm 8 m/s 753 mmHg 75%
    03:00 +16°C° 0 mm 7 m/s 752 mmHg 80%
    04:00 +16°C° 0 mm 7 m/s 752 mmHg 83%
    05:00 +15°C° 0 mm 6 m/s 752 mmHg 86%
    06:00 +15°C° 0 mm 6 m/s 751 mmHg 89%
    07:00 +16°C° 0 mm 6 m/s 751 mmHg 86%
    08:00 +17°C° 0 mm 6 m/s 751 mmHg 84%
    09:00 +19°C° 0 mm 6 m/s 751 mmHg 81%
    10:00 +19°C° 0 mm 6 m/s 751 mmHg 80%
    11:00 +20°C° 0 mm 6 m/s 751 mmHg 79%
    12:00 +20°C° 0 mm 6 m/s 750 mmHg 78%
    13:00 +20°C° 0 mm 6 m/s 750 mmHg 79%
    14:00 +20°C° 0 mm 6 m/s 750 mmHg 81%
    15:00 +19°C° 0 mm 5 m/s 749 mmHg 82%
    16:00 +19°C° 0 mm 5 m/s 749 mmHg 85%
    17:00 +17°C° 0 mm 5 m/s 749 mmHg 88%
    18:00 +18°C° 0 mm 4 m/s 749 mmHg 91%
    19:00 +16°C° 0 mm 5 m/s 748 mmHg 92%
    20:00 +16°C° 0 mm 5 m/s 748 mmHg 93%
    21:00 +16°C° 0 mm 6 m/s 748 mmHg 94%
    22:00 +16°C° 1 mm 6 m/s 748 mmHg 94%
    23:00 +16°C° 1 mm 7 m/s 747 mmHg 94%

    22 Septembre, Dimanche

    Heure Température Précipitation Vent Pression Humidité
    00:00 +16°C° 1 mm 7 m/s 747 mmHg 95%
    01:00 +16°C° 1.6 mm 7 m/s 747 mmHg 95%
    02:00 +15°C° 1.6 mm 6 m/s 747 mmHg 95%
    03:00 +15°C° 1.6 mm 5 m/s 747 mmHg 95%
    04:00 +15°C° 0.2 mm 6 m/s 747 mmHg 94%
    05:00 +15°C° 0.2 mm 6 m/s 747 mmHg 93%
    06:00 +14°C° 0.2 mm 6 m/s 748 mmHg 92%
    07:00 +15°C° 0.2 mm 6 m/s 748 mmHg 88%
    08:00 +15°C° 0.2 mm 6 m/s 748 mmHg 85%
    09:00 +16°C° 0.2 mm 5 m/s 748 mmHg 81%
    10:00 +16°C° 0.4 mm 5 m/s 749 mmHg 78%
    11:00 +17°C° 0.4 mm 5 m/s 749 mmHg 75%
    12:00 +17°C° 0.4 mm 5 m/s 749 mmHg 71%
    13:00 +17°C° 0.4 mm 6 m/s 750 mmHg 72%
    14:00 +17°C° 0.4 mm 7 m/s 750 mmHg 72%
    15:00 +17°C° 0.4 mm 8 m/s 750 mmHg 73%
    16:00 +16°C° 0.2 mm 8 m/s 751 mmHg 75%
    17:00 +15°C° 0.2 mm 9 m/s 751 mmHg 78%
    18:00 +15°C° 0.2 mm 9 m/s 752 mmHg 81%
    19:00 +13°C° 0.1 mm 9 m/s 752 mmHg 80%
    20:00 +13°C° 0.1 mm 9 m/s 753 mmHg 80%
    21:00 +12°C° 0.1 mm 9 m/s 754 mmHg 79%
    22:00 +12°C° 0 mm 8 m/s 754 mmHg 81%
    23:00 +12°C° 0 mm 7 m/s 755 mmHg 83%

    23 Septembre, Lundi

    Heure Température Précipitation Vent Pression Humidité
    00:00 +11°C° 0 mm 6 m/s 755 mmHg 85%
    01:00 +11°C° 0 mm 6 m/s 755 mmHg 86%
    02:00 +11°C° 0 mm 6 m/s 755 mmHg 88%
    03:00 +10°C° 0 mm 5 m/s 756 mmHg 89%
    04:00 +12°C° 0 mm 5 m/s 756 mmHg 89%
    05:00 +12°C° 0 mm 5 m/s 756 mmHg 88%
    06:00 +12°C° 0 mm 5 m/s 756 mmHg 88%
    07:00 +13°C° 0.2 mm 6 m/s 756 mmHg 88%
    08:00 +14°C° 0.2 mm 6 m/s 755 mmHg 88%
    09:00 +15°C° 0.2 mm 7 m/s 755 mmHg 89%
    10:00 +15°C° 1.6 mm 8 m/s 755 mmHg 91%
    11:00 +13°C° 1.6 mm 9 m/s 754 mmHg 93%
    12:00 +13°C° 1.6 mm 10 m/s 754 mmHg 96%
    13:00 +14°C° 3.3 mm 10 m/s 754 mmHg 96%
    14:00 +16°C° 3.3 mm 10 m/s 753 mmHg 96%
    15:00 +16°C° 3.3 mm 11 m/s 753 mmHg 96%
    16:00 +16°C° 0.7 mm 11 m/s 753 mmHg 96%
    17:00 +17°C° 0.7 mm 11 m/s 752 mmHg 95%
    18:00 +17°C° 0.7 mm 10 m/s 752 mmHg 95%
    19:00 +17°C° 0.3 mm 10 m/s 753 mmHg 95%
    20:00 +16°C° 0.3 mm 10 m/s 753 mmHg 95%
    21:00 +16°C° 0.3 mm 10 m/s 754 mmHg 95%
    22:00 +16°C° 1.2 mm 10 m/s 754 mmHg 94%
    23:00 +16°C° 1.2 mm 10 m/s 754 mmHg 94%
    Voir plus